Simultaneous Nadir Overpasses (SNOs) Predictions

Prediction of SNOs between GOES-17 and METOP-C Satellite Orbit:

Table of predicted SNOs for the next 14.0 days since TLE Epoch: 4/9/2022
Index Date Time (GOES-17) GOES-17 Lat,Lon METOP-C Lat,Lon Distance(km) Time Diff (sec)
1 04/09/2022 18:40:05 0.05,-137.20 -0.01,-136.84 40.26 80
2 04/11/2022 06:59:05 -0.04,-137.20 -1.01,-141.44 483.70 80
3 04/12/2022 06:35:45 -0.04,-137.19 0.11,-136.45 84.78 80
4 04/13/2022 18:54:38 0.04,-137.18 0.91,-141.01 436.70 80
5 04/14/2022 18:36:38 0.04,-137.17 -0.22,-136.02 131.62 80
6 04/16/2022 06:55:37 -0.04,-137.16 -0.80,-140.61 393.08 80
7 04/17/2022 06:32:18 -0.04,-137.15 0.32,-135.62 174.72 80
8 04/18/2022 18:51:09 0.04,-137.12 0.73,-140.18 348.13 80
9 04/19/2022 18:33:10 0.04,-137.11 -0.39,-135.18 219.05 80
10 04/21/2022 06:52:09 -0.03,-137.08 -0.63,-139.78 307.64 80
11 04/22/2022 06:28:50 -0.03,-137.05 0.49,-134.78 258.89 80
